Theta_e
331 321 313 310 300 295 290 293 297 297 299 304 306 303 304 307 306 298 321 330 335 338 343 344 346 344 344 342 342 344 344 342 341 343 342 342 341 340 339 339 341 339 340 336 337 336 336 337 339
324 319 311 305 295 290 290 294 296 298 303 310 308 308 307 303 315 318 323 331 337 341 343 343 343 345 344 342 342 344 343 343 343 341 341 341 339 338 337 337 336 337 338 336 335 336 336 335 337
315 314 306 299 292 291 291 296 297 301 307 305 306 310 308 306 314 321 324 335 339 340 341 341 343 345 344 343 343 344 343 343 343 342 340 342 340 338 337 336 336 335 335 336 334 335 336 335 336
315 312 306 296 293 294 296 299 302 302 305 305 309 304 310 319 320 324 332 337 338 340 339 340 344 345 344 343 342 343 342 342 342 343 341 343 341 339 337 336 335 335 334 334 334 336 335 335 336
313 307 300 296 295 296 299 302 303 302 303 305 307 302 306 316 323 330 333 336 336 338 338 340 343 344 344 343 342 341 341 340 342 340 342 343 343 341 337 336 335 334 334 334 334 335 335 336 335
307 305 297 293 296 298 301 302 303 301 302 303 306 306 307 316 325 327 332 333 337 336 338 339 336 339 341 342 341 341 340 339 339 338 340 342 342 341 340 337 335 334 333 332 334 334 335 335 334
305 302 298 295 297 297 301 304 301 302 302 303 311 305 308 313 322 327 329 331 334 337 339 337 337 336 335 337 338 339 339 338 337 337 337 336 339 340 338 337 337 334 333 332 333 334 333 332 332
305 303 298 296 298 297 300 303 303 304 302 310 314 305 305 314 321 326 328 329 331 335 337 337 335 335 333 333 332 333 336 335 334 333 331 329 329 333 334 332 335 335 333 333 332 332 332 331 329
307 299 296 299 299 300 301 301 304 307 306 310 314 311 314 318 325 325 327 329 329 331 334 335 335 332 331 331 330 329 330 331 330 329 327 324 322 322 330 329 333 335 334 334 332 332 332 331 327
301 297 299 303 301 300 302 302 303 304 307 307 311 315 318 317 323 323 323 324 326 328 330 333 333 334 331 334 330 328 329 327 326 325 323 323 321 321 322 322 326 331 331 332 333 332 331 325 317
298 293 298 301 304 304 302 302 303 303 302 306 309 313 316 314 317 321 322 325 326 328 330 331 332 333 334 334 329 328 326 325 324 323 322 321 320 318 319 318 319 321 321 323 326 324 322 318 315
295 299 299 300 305 304 302 304 300 301 303 307 310 317 316 314 314 319 320 321 323 326 329 331 332 332 332 333 333 331 330 324 322 321 321 319 317 316 316 316 316 317 318 319 319 319 318 317 315
295 296 298 301 302 302 305 303 303 304 304 314 314 317 316 316 315 316 317 319 321 323 326 329 330 330 331 331 331 331 329 330 325 322 321 319 317 315 315 315 315 315 316 317 317 318 317 316 315
298 300 299 301 299 300 302 300 304 305 306 308 316 315 316 316 316 315 316 315 316 323 324 327 329 331 332 330 330 329 329 330 329 324 323 320 319 317 315 315 315 314 315 315 316 317 317 316 314
301 296 298 298 299 299 301 297 299 304 305 305 312 314 316 316 317 317 319 318 318 317 323 325 327 329 330 330 330 328 326 328 328 327 322 322 320 317 317 315 314 315 315 315 314 314 315 318 317
296 295 289 294 298 299 298 289 295 301 301 302 303 306 310 315 317 319 319 320 320 318 316 322 327 329 329 330 329 328 326 324 325 327 326 323 321 320 317 317 317 316 314 315 314 314 312 312 315
290 286 288 293 297 296 297 292 297 300 300 300 300 301 301 302 303 306 316 319 320 320 318 316 322 325 328 329 328 327 326 325 324 324 325 323 323 321 321 319 319 315 315 315 315 316 316 316 312
286 286 286 287 291 292 291 293 298 299 299 299 298 299 300 301 303 304 305 311 320 320 320 319 318 322 324 328 327 324 323 325 326 324 324 324 324 323 320 320 318 316 315 314 311 314 312 314 314
287 287 285 288 292 290 289 290 293 295 294 297 299 301 301 301 305 304 304 305 307 313 318 319 317 319 321 324 323 321 322 322 323 324 325 323 324 323 321 321 319 317 316 316 315 313 312 311 308
289 285 285 289 292 291 289 288 291 294 293 295 296 297 298 301 303 301 302 303 305 307 311 317 319 318 321 322 323 322 323 324 324 323 322 322 323 323 322 321 321 318 318 316 315 314 312 311 309
288 286 286 286 290 288 284 281 285 289 290 293 295 297 298 299 299 300 299 299 300 302 305 312 317 318 320 322 319 317 317 315 316 317 319 320 322 322 321 322 321 319 318 318 317 315 315 315 311
286 292 293 290 286 279 284 274 282 287 288 289 290 290 293 294 296 298 298 297 297 300 301 304 315 316 318 319 318 317 318 315 315 316 318 319 320 320 321 321 321 321 319 318 319 317 316 315 315
287 293 292 290 284 281 279 278 281 285 286 288 289 290 289 290 292 294 295 297 297 299 303 306 313 316 317 318 319 317 315 316 317 317 317 317 317 319 319 320 320 320 320 320 318 318 317 317 316
292 288 287 284 282 274 280 279 277 282 285 286 286 288 290 290 289 290 293 295 297 301 300 302 303 304 314 315 316 316 315 315 315 315 315 316 316 316 317 318 318 319 320 320 320 318 318 318 317
289 285 275 276 276 273 278 279 280 286 289 288 289 289 289 292 290 294 296 297 297 296 295 297 297 297 299 303 308 313 314 315 315 315 315 315 315 314 316 316 317 318 319 319 320 319 317 317 317
286 286 278 271 273 274 280 276 281 288 288 288 289 289 291 291 293 294 293 293 293 294 294 295 296 296 297 298 298 299 301 302 303 306 310 314 315 317 318 317 316 317 318 318 319 319 319 319 318
287 283 286 278 268 272 276 279 284 287 287 287 288 289 290 293 294 292 291 292 292 294 294 295 295 296 297 297 297 298 298 298 298 299 301 306 310 315 316 316 316 317 317 318 318 318 319 320 319
288 290 282 278 268 267 274 275 279 282 285 286 287 287 289 291 293 291 291 292 292 293 294 294 295 296 296 297 297 298 298 298 299 300 300 300 301 302 303 303 304 306 311 315 317 318 318 318 318
285 282 284 284 280 273 270 274 280 283 284 284 286 288 290 291 291 290 291 292 293 293 293 294 295 295 296 296 296 296 297 298 298 299 299 299 300 300 300 301 301 302 303 305 308 312 315 316 315
289 285 285 280 275 277 277 278 284 284 285 285 287 288 290 290 290 289 290 291 292 292 293 294 295 295 295 296 296 296 296 296 296 297 297 298 298 299 299 299 299 299 300 300 300 301 302 302 304
Wind_Speed
10 8 1 5 5 6 1 3 1 3 2 1 3 4 6 2 4 4 4 5 7 9 7 9 13 14 14 13 12 11 10 11 12 12 12 13 13 12 13 11 13 10 13 14 13 13 13 13 15
7 3 4 3 6 3 4 2 5 4 4 7 4 2 3 1 1 2 5 4 8 9 7 8 12 15 13 13 12 10 9 9 11 12 11 12 12 12 12 9 10 11 10 11 12 12 10 10 12
4 2 4 5 3 4 4 4 6 2 6 2 3 3 2 1 1 6 2 8 6 6 6 8 12 14 13 12 12 9 8 6 9 13 11 11 13 11 11 9 9 9 9 9 10 10 10 9 10
5 4 4 5 1 1 2 5 6 6 2 1 4 3 1 2 6 6 8 9 10 9 6 9 12 12 12 11 10 8 6 7 9 8 11 9 13 12 11 10 7 8 7 9 9 10 8 9 9
4 3 4 3 3 3 2 5 7 5 3 2 2 3 1 1 2 8 10 9 12 8 6 7 10 11 12 11 10 8 6 5 7 5 7 9 9 14 12 10 8 7 7 7 9 9 8 10 9
4 3 5 0 3 3 1 4 5 3 2 2 3 5 3 1 5 6 9 9 11 11 7 6 8 9 10 10 10 8 7 4 5 5 1 11 9 12 13 11 9 7 7 7 8 8 8 7 7
5 4 4 2 2 1 3 7 3 4 5 4 7 5 2 2 4 7 7 7 8 11 10 5 6 6 8 8 8 8 8 7 3 4 1 3 9 10 10 11 8 7 6 6 7 7 5 5 5
5 4 4 2 2 2 1 5 1 5 3 3 3 2 3 4 8 7 6 6 7 10 10 9 6 6 5 6 8 8 8 9 7 3 3 5 9 4 7 7 8 7 6 6 6 5 5 4 3
3 5 3 6 6 3 2 3 2 1 5 1 1 2 1 7 10 8 6 4 7 8 9 9 8 6 5 5 5 6 7 7 7 7 5 4 2 2 3 5 6 7 6 5 5 5 4 3 2
5 4 9 4 2 4 4 4 5 3 2 2 2 1 4 8 10 13 12 10 10 11 8 7 9 10 5 4 5 5 5 4 4 4 4 3 4 2 1 2 5 6 7 6 6 6 4 3 1
2 6 4 2 1 1 4 4 3 7 3 6 6 5 8 6 7 10 9 13 14 11 9 9 8 10 9 7 3 2 2 3 3 6 5 4 3 3 2 1 1 1 3 2 2 2 1 2 2
1 3 3 1 2 1 2 1 2 3 4 1 6 6 8 10 11 12 11 10 10 12 14 13 12 11 10 8 5 7 6 3 3 4 5 3 2 3 3 2 3 3 3 4 3 2 3 3 4
3 2 2 2 2 1 1 0 2 5 3 4 5 7 9 9 10 7 7 6 6 10 11 13 13 12 12 10 7 7 8 6 5 4 5 4 4 4 3 3 3 3 3 3 3 4 4 4 5
0 1 2 3 1 2 2 1 1 3 4 3 6 8 8 9 9 5 7 9 11 12 11 10 12 13 13 12 12 9 8 8 6 5 6 7 5 4 4 4 4 4 3 3 4 4 4 4 4
2 0 5 3 2 4 4 6 9 4 3 5 6 7 7 10 6 11 10 11 10 10 8 11 11 10 12 14 12 7 7 7 9 8 6 8 7 6 5 4 4 4 4 5 4 4 3 5 5
2 4 3 2 5 3 6 9 3 6 6 9 8 7 8 11 11 11 9 10 8 6 11 11 10 12 13 12 9 7 6 6 7 7 8 9 10 10 7 6 6 5 4 4 4 4 4 5 6
5 2 4 6 6 1 6 6 2 4 4 9 7 9 9 9 10 10 10 11 10 11 11 11 12 14 13 11 8 8 8 7 7 7 7 9 11 10 9 7 7 5 5 5 5 5 6 6 4
5 3 2 4 3 1 3 8 9 5 3 9 8 8 9 9 15 8 9 9 10 10 11 12 11 13 12 9 7 4 5 7 7 8 8 10 8 10 9 7 7 6 5 5 4 7 5 6 6
2 2 3 3 3 3 5 6 13 8 4 8 10 10 10 12 14 9 8 8 7 7 8 11 11 14 10 8 7 5 9 8 7 8 10 9 8 8 9 8 7 7 8 9 8 5 7 5 4
3 1 4 3 3 3 7 10 12 11 7 10 13 13 14 12 13 7 8 8 7 8 9 8 12 10 12 9 8 4 5 7 7 5 7 9 10 10 9 9 8 8 7 8 8 9 5 5 6
3 4 3 2 5 2 6 8 6 8 3 6 9 15 14 15 12 12 8 9 8 9 9 8 10 10 11 11 4 3 3 1 3 3 5 8 9 9 9 9 9 7 8 8 8 9 11 9 5
4 7 6 1 5 3 4 8 7 9 12 6 12 11 12 11 10 12 9 7 8 9 5 8 7 8 8 9 8 8 7 6 4 4 4 5 8 9 9 10 8 8 6 9 9 7 10 9 10
5 3 5 4 3 3 2 2 9 4 9 14 5 6 8 10 10 12 8 8 7 4 4 3 5 6 7 9 9 7 5 3 2 2 5 5 5 8 8 8 9 9 7 9 10 9 9 9 10
7 6 6 4 3 2 7 7 5 5 10 6 1 5 6 9 9 8 5 5 5 3 4 6 8 5 4 5 6 7 7 5 3 2 3 3 3 4 6 7 8 9 9 10 9 10 12 11 10
2 7 2 3 1 8 2 3 7 10 15 7 11 10 9 7 2 5 7 7 7 7 6 6 8 7 7 8 5 4 4 3 4 4 3 4 3 3 5 6 6 7 9 10 9 9 10 12 11
6 6 7 8 5 4 2 9 8 8 9 10 9 8 7 3 1 4 5 6 8 7 6 7 7 7 7 7 6 5 4 2 1 2 2 3 3 4 5 5 6 7 8 8 9 9 10 11 10
6 8 7 6 3 3 5 8 9 10 12 9 9 5 4 6 5 6 5 6 7 7 8 8 8 7 6 6 5 5 4 3 1 2 2 2 4 3 5 5 6 6 7 9 9 8 11 12 12
6 7 3 2 2 5 6 6 8 7 8 8 10 4 2 3 5 4 4 5 4 5 5 6 7 7 5 5 4 4 3 3 2 1 2 3 3 3 4 5 6 6 6 6 8 10 13 14 13
4 4 3 5 6 6 3 8 8 10 5 9 10 6 7 7 7 5 5 3 5 4 5 5 6 7 5 4 3 3 2 3 3 2 3 3 4 4 4 5 6 5 6 6 7 9 11 14 15
8 8 10 6 6 4 1 12 5 8 6 6 9 6 5 6 8 6 5 5 5 5 5 5 5 6 5 4 3 3 3 3 4 4 5 6 6 5 6 5 5 6 6 6 6 8 9 11 13
Wind_Direction
326 317 70 40 62 69 145 237 259 148 167 252 85 142 178 115 163 205 311 187 142 142 143 142 137 138 135 138 138 136 131 129 122 117 111 111 106 105 96 82 102 94 95 98 101 95 88 90 93
318 332 42 81 88 74 262 227 190 203 163 139 94 92 45 129 98 86 107 206 148 141 136 141 136 136 137 140 144 140 143 141 140 127 119 113 111 106 102 106 108 105 101 107 106 93 90 103 96
325 44 74 88 105 158 191 201 188 180 160 160 92 63 147 187 214 174 222 137 123 122 125 136 136 140 139 141 148 145 136 129 115 130 133 144 124 117 117 110 115 115 119 115 112 99 86 109 106
2 12 41 79 115 238 212 174 170 138 248 109 129 84 308 248 161 181 134 126 136 138 110 136 139 142 143 145 142 142 139 128 129 130 138 122 134 125 124 124 116 120 124 134 126 102 100 114 116
32 59 45 58 314 296 250 159 154 160 164 148 163 200 215 127 89 130 133 131 150 142 123 136 142 145 150 152 148 148 149 126 119 127 155 136 141 139 135 134 127 128 133 141 137 116 109 133 129
38 94 58 286 314 337 93 148 141 163 167 147 88 141 209 72 132 152 137 135 155 156 138 143 147 150 151 155 155 149 142 151 133 116 95 148 156 150 142 143 144 145 142 150 148 131 119 121 133
114 85 170 160 274 321 177 150 175 176 157 226 150 139 260 210 188 147 135 127 139 158 157 139 158 158 154 157 157 159 159 155 163 146 133 39 147 147 142 144 151 159 156 158 158 146 133 124 132
103 92 129 198 181 227 285 180 161 154 205 111 157 213 252 199 144 116 113 130 142 162 172 171 166 163 162 170 168 168 166 161 167 182 94 10 40 139 165 148 154 165 174 175 174 170 165 148 109
117 68 176 193 172 197 156 178 151 59 123 86 226 160 4 119 123 122 143 138 163 179 181 184 173 165 169 171 181 175 173 171 169 186 189 105 78 30 151 161 168 170 176 185 196 202 189 164 147
91 132 210 193 188 176 169 171 161 141 123 251 266 108 87 124 153 163 174 183 190 192 193 191 188 187 169 171 169 187 184 183 181 187 195 169 165 187 352 59 226 194 180 193 207 216 212 166 206
170 187 207 187 144 35 167 142 175 138 215 216 204 168 146 151 167 181 186 191 194 195 198 198 192 194 190 191 168 185 186 183 190 196 194 196 187 191 185 171 306 309 226 224 220 272 221 229 221
207 238 196 102 17 90 153 114 130 200 217 302 222 158 163 170 185 191 200 191 182 195 202 202 203 199 198 201 183 200 202 194 197 205 201 184 204 221 209 202 212 206 211 223 221 218 247 251 260
183 259 184 334 355 320 352 191 179 250 195 39 102 149 182 190 201 207 203 202 193 204 203 203 200 200 202 205 197 199 202 197 201 195 195 182 197 219 233 234 216 219 215 215 227 228 235 244 244
268 326 337 316 302 290 187 235 97 274 222 144 153 194 201 213 210 200 196 211 206 208 207 197 203 204 202 204 207 207 206 206 201 204 202 193 189 193 198 215 225 230 216 224 226 226 237 246 239
148 351 331 215 215 253 146 285 225 203 119 190 212 219 222 231 211 226 222 226 216 222 208 202 198 197 203 210 212 202 196 196 210 216 198 196 196 201 205 211 217 214 200 217 228 241 239 260 260
129 73 123 279 166 250 132 263 286 238 190 230 233 237 236 249 227 231 225 230 217 195 202 206 201 200 203 206 205 205 196 195 206 208 208 195 198 198 203 211 218 201 198 204 202 217 237 238 243
2 215 191 306 198 124 180 260 261 359 212 252 232 240 245 259 260 238 232 223 222 215 208 203 198 205 202 204 199 201 198 205 206 207 207 205 206 203 208 216 223 191 202 208 210 219 227 246 248
210 215 260 247 335 41 237 263 273 278 230 264 262 250 253 256 255 252 233 226 226 215 212 211 203 207 198 194 194 190 195 212 211 212 215 210 212 206 206 216 214 194 204 211 199 222 211 227 235
120 184 233 262 317 329 255 255 277 276 272 258 266 265 254 241 255 238 240 239 223 229 213 210 197 205 184 186 185 197 214 213 219 218 216 208 212 206 207 217 208 197 210 218 210 211 228 243 192
124 154 243 271 304 337 310 285 270 263 227 223 240 251 250 260 267 240 226 227 222 223 216 210 211 197 195 191 201 183 185 218 223 205 204 207 210 212 213 217 217 199 216 218 208 205 220 229 175
195 191 210 250 337 341 334 284 269 286 229 240 246 244 253 246 254 262 229 226 238 244 228 213 210 194 196 194 148 111 92 85 156 196 209 215 214 216 214 221 222 208 207 228 219 210 217 243 208
225 201 211 242 30 252 31 287 309 287 296 232 256 236 251 251 247 250 254 244 225 239 233 232 198 186 181 162 171 182 194 206 199 182 187 196 197 209 215 221 221 222 209 227 228 211 220 222 245
231 139 162 148 173 5 352 298 268 343 297 278 261 272 260 251 243 253 241 236 241 208 190 194 171 167 167 175 179 183 190 211 168 184 199 209 202 211 213 213 218 223 221 232 229 229 217 224 235
160 87 56 56 104 311 205 179 248 215 224 287 162 328 315 312 265 250 269 195 150 150 116 108 104 81 116 160 156 170 195 213 230 228 243 248 227 217 218 215 218 223 227 231 232 228 230 231 231
140 108 7 340 330 233 92 197 248 275 264 251 286 298 312 331 313 152 141 138 136 137 122 113 102 87 87 96 108 162 202 214 244 265 243 263 258 242 235 216 223 230 232 236 238 237 233 229 236
186 166 165 204 202 266 79 238 253 243 289 269 270 276 285 12 233 146 141 130 130 131 118 105 105 100 89 86 83 77 87 114 223 272 274 262 250 251 256 235 229 233 232 235 237 242 243 242 239
193 220 155 105 54 33 233 286 291 284 277 287 293 292 218 158 182 172 158 154 149 139 137 132 119 104 93 101 108 96 88 91 141 292 275 273 284 281 283 279 265 250 244 245 248 248 252 250 248
171 158 101 30 173 268 256 262 239 294 262 297 296 315 257 198 182 192 190 172 157 136 127 121 124 123 113 100 84 78 65 41 24 10 344 312 297 284 299 290 280 281 272 261 254 260 268 268 267
150 192 193 143 171 198 255 257 220 240 261 272 280 273 216 199 197 197 205 205 161 144 146 135 122 125 123 118 114 92 53 29 4 12 3 345 328 326 313 299 298 291 285 282 280 276 277 275 277
229 209 178 182 211 233 189 253 228 229 244 239 277 323 235 207 202 217 218 202 191 180 166 165 157 148 154 141 118 86 61 42 26 355 350 346 333 327 318 314 306 297 287 285 286 291 290 286 284